This is the latest recevied weather packets stored in our database for station/object N3MFL. If no packets are shown the sender has not sent any weather packets the latest 10 day(s).
| Time | Temp. | Humidity | Pressure | Rain* | Wind** | Luminosity | Snow |
|---|---|---|---|---|---|---|---|
| 1777576718 | 11.67° C | 86% | 1006.8 hPa | 0 mm | - | 84 W/m² | - |
| 1777576416 | 12.22° C | 86% | 1006.7 hPa | 0 mm | - | 63 W/m² | - |
| 1777576114 | 12.22° C | 86% | 1006.9 hPa | 0 mm | - | 65 W/m² | - |
| 1777575808 | 12.22° C | 85% | 1006.8 hPa | 0 mm | - | 73 W/m² | - |
| 1777575506 | 12.22° C | 84% | 1006.7 hPa | 0 mm | - | 104 W/m² | - |
| 1777575201 | 12.22° C | 85% | 1006.6 hPa | 0 mm | - | 132 W/m² | - |
| 1777574897 | 12.78° C | 83% | 1006.8 hPa | 0 mm | - | 194 W/m² | - |
| 1777574594 | 12.78° C | 84% | 1006.9 hPa | 0 mm | - | 167 W/m² | - |
| 1777574290 | 12.22° C | 86% | 1006.7 hPa | 0 mm | - | 151 W/m² | - |
| 1777573986 | 12.22° C | 85% | 1006.8 hPa | 0 mm | - | 147 W/m² | - |
| 1777573681 | 12.22° C | 85% | 1006.7 hPa | 0 mm | - | 136 W/m² | - |
| 1777573378 | 12.22° C | 85% | 1006.9 hPa | 0 mm | - | 124 W/m² | - |
| 1777573074 | 12.22° C | 86% | 1007 hPa | 0 mm | - | 121 W/m² | - |
| 1777572771 | 12.22° C | 84% | 1006.8 hPa | 0 mm | - | 137 W/m² | - |
| 1777572471 | 12.22° C | 87% | 1006.9 hPa | 0 mm | - | 196 W/m² | - |
| 1777572167 | 12.22° C | 87% | 1007 hPa | 0 mm | - | 232 W/m² | - |
| 1777571862 | 12.78° C | 86% | 1007.1 hPa | 0 mm | - | 243 W/m² | - |
| 1777571558 | 12.22° C | 86% | 1007.2 hPa | 0 mm | - | 234 W/m² | - |
| 1777571255 | 12.22° C | 87% | 1007.2 hPa | 0 mm | - | 340 W/m² | - |
| 1777570951 | 12.22° C | 87% | 1007.1 hPa | 0 mm | - | 302 W/m² | - |
| 1777570647 | 11.67° C | 88% | 1007.2 hPa | 0 mm | - | 331 W/m² | - |
| 1777570344 | 11.67° C | 90% | 1007.4 hPa | 0 mm | - | 343 W/m² | - |
| 1777570040 | 11.67° C | 92% | 1007.5 hPa | 0 mm | - | 403 W/m² | - |
| 1777569735 | 11.11° C | 92% | 1007.7 hPa | 0 mm | - | 249 W/m² | - |
| 1777569431 | 10.56° C | 93% | 1007.8 hPa | 0 mm | - | 112 W/m² | - |
* Rain latest hour (hover to see other rain measurements)
** Current wind speed in m/s (hover to see current wind gust speed)